Regional Weather Roundup
Issued by NWS Mobile, AL

Home | Current Version | Previous Version | Text Only | Print | Product List | Glossary On
Versions: 1 2 3 4 5 6 7 8 9 10 11 12 13 14 15 16 17 18 19 20 21 22 23 24 25 26 27 28 29 30 31 32 33 34 35 36 37 38 39 40 41 42 43 44 45 46 47 48 49 50
000
ASUS44 KMOB 051617
RWRMOB
REGIONAL WEATHER ROUNDUP
NATIONAL WEATHER SERVICE MOBILE AL
1100 AM CDT TUE MAY 05 2015

ALZ061>064-051700-
COASTAL ALABAMA


CITY           SKY/WX    TMP DP  RH WIND       PRES   REMARKS
MOBILE REG APT MOSUNNY   79  61  53 E12       30.23S
BROOKLEY FIELD MOSUNNY   77  64  64 E7        30.23S
GULF SHORES    MOSUNNY   76  65  70 E13       30.22S

$$

ALZ051>060-051700-
INTERIOR SOUTHWEST AND SOUTH CENTRAL ALABAMA


CITY           SKY/WX    TMP DP  RH WIND       PRES   REMARKS
ANDALUSIA/OPP  SUNNY     82  57  42 SE10G16   30.25F
EVERGREEN      SUNNY     79  57  46 E12       30.25F
FLORALA        SUNNY     77  58  51 VRB7      30.26F
GREENVILLE     FAIR      79  58  48 E8        30.25F

$$

FLZ001>006-051700-
WESTERN FLORIDA PANHANDLE


CITY           SKY/WX    TMP DP  RH WIND       PRES   REMARKS
CRESTVIEW      SUNNY     80  57  45 E7        30.25F
DESTIN         SUNNY     79  60  52 VRB7      30.23S
DUKE FIELD     MOSUNNY   79  55  42 E9G18     30.23S
MARY ESTHER    SUNNY     78  56  46 SE7       30.22F
MILTON         MOSUNNY   80  57  45 E12G20    30.23F
PENSACOLA      SUNNY     76  59  55 SE16      30.22F
NAS PENSACOLA  MOSUNNY   77  63  61 E16       30.22S
VALPARAISO     MOSUNNY   78  60  54 SE12      30.23S

$$

...MARINE OBSERVATIONS...

STATION/POSITION TIME  SKY/WX   TEMP    WIND        PRES    VSBY
                                AIR SEA DIR/SP/G
                 (UTC)          (F)     (DEG/KT/KT) (MB)    (MI)
PASCAGOULA       1500            75      80/ 11/ 15 1022.7R
PETIT BOIS ISL   1500            75      80/ 14/ 18 1023.1R
E DAUPHIN ISLAND 1600            73     110/ 15/ 17 1022.9R
MIDDLE BAY LIGHT 1500            73     110/ 13     1022.0F
USCG MOBILE BAY  1500            72 72   90/  6/  8 1022.3F
STATE DOCKS      1500            75 70              1023.1F
MEAHER PARK      1600            77     100/  7     1022.7F
FORT MORGAN      1500            75     120/ 18/ 20 1022.4R
12 S ORANGE BCH  1550            73 74   90/ 16/ 19 1022.1R
WVE H/P(F/S)=  5/ 8

PENSACOLA BAY    1500            79 76   90/  2/  5 1023.9R
64 S DAUPHIN ISL 1550            74 75   90/ 16/ 19 1022.3R
WVE H/P(F/S)=  6/ 8

67 S FORT MORGAN 1530            76                 1021.7R
115 SE PENSACOLA 1550            73 75   80/ 17/ 19 1022.1R
WVE H/P(F/S)=  5/ 7

MID GULF/42001   1550            78 79   90/ 16/ 19 1018.9S
WVE H/P(F/S)=  6/ 9

EAST GULF/42003  1550            77 81   80/ 16/ 17 1019.6R
WVE H/P(F/S)=  7/ 8


$$

...NEARBY LOCATIONS

CITY           SKY/WX    TMP DP  RH WIND       PRES   REMARKS
GULFPORT       SUNNY     79  61  53 E15       30.21R
BILOXI         SUNNY     80  61  53 SE16      30.21R
PASCAGOULA     PTSUNNY   77  63  61 SE9       30.21S
HATTIESBURG    SUNNY     79  59  50 E9        30.24R
LAUREL         SUNNY     79  59  50 SE7       30.25S
MERIDIAN       SUNNY     78  51  38 SE10      30.26R
MERIDIAN NAS   SUNNY     80  56  43 E8        30.26S
MONTGOMERY     SUNNY     79  57  46 NE7       30.27F
MAXWELL AFB    SUNNY     78  58  49 E6        30.27F
TROY           SUNNY     78  57  48 SE9       30.28S
FORT RUCKER    SUNNY     78  59  51 VRB6      30.25F
DALEVILLE      SUNNY     77  58  52 NE10      30.26F
DOTHAN         SUNNY     77  59  53 E10G17    30.30S

$$

...OTHER SURROUNDING LOCATIONS...

CITY           SKY/WX    TMP DP  RH WIND       PRES   REMARKS
BIRMINGHAM     SUNNY     78  57  48 S7        30.32S
TUSCALOOSA     SUNNY     77  57  50 VRB5      30.28S
COLUMBUS GA    SUNNY     76  54  46 E7        30.29F
PANAMA CITY    NOT AVBL
TALLAHASSEE    SUNNY     81  55  40 E14       30.24S
BATON ROUGE    MOSUNNY   81  65  58 E9        30.18S
NEW ORLEANS    MOSUNNY   81  61  50 E13G22    30.18R
SLIDELL        MOSUNNY   80  65  59 SE14G22   30.20R
JACKSON        MOSUNNY   79  57  46 SE16G23   30.22S
MCCOMB         MOSUNNY   79  62  56 SE13      30.21S

$$

...SURROUNDING MARINE OBSERVATIONS...

STATION/POSITION TIME  SKY/WX   TEMP    WIND        PRES    VSBY
                                AIR SEA DIR/SP/G
                 (UTC)          (F)     (DEG/KT/KT) (MB)    (MI)
WAVELAND         1500            73 74  120/ 16/ 19 1022.7R
PASCAGOULA RGN A 1500            76     110/ 13/ 17 1022.4R
PASCAGOULA PORT  1500               77                N/A
GRAND ISLE       1500            77 75  100/ 12/ 17 1021.3R
SOUTHWEST PASS   1600            76     100/ 19/ 20 1021.7R
PILOT STATION E  1500            77 67  100/ 18/ 20 1021.8R
SHELL BEACH      1500            75 75  100/ 16/ 20 1021.4R
PANAMA CITY      1500            75 75   90/  8/ 13 1023.0F
APALACHICOLA     1500            73 71  100/ 10/ 16 1023.2R
TYNDALL TOWER C  1600            71      60/ 21/ 22 1022.7R
S APLCHCLA/42036 1550            73 74   80/ 14/ 17 1021.8F
WVE H/P(F/S)=  4/ 6


$$




USA.gov is the U.S. government's official web portal to all federal, state and local government web resources and services.